Theta_e
336 336 335 334 334 334 333 333 332 333 334 334 334 333 332 335 336 335 335 336 335 335 335 333 334 334 333 333 334 334 334 334 333 332 332 333 333 332 331 333 332 331 331 331 331 330 330 330 328 328 329 329 329 327 327 326 325 324 324 325 325 325 324
336 336 335 334 333 333 332 332 332 333 333 333 332 332 332 334 336 335 336 336 335 335 334 334 335 334 333 333 333 333 333 333 333 333 332 332 333 332 332 332 331 332 331 332 332 331 331 330 328 328 328 327 327 326 325 324 323 322 321 321 321 322 321
335 335 335 334 333 333 332 332 332 331 332 332 332 332 333 333 334 335 335 335 334 334 334 334 334 334 334 333 333 334 334 334 333 334 333 332 331 331 332 331 329 331 332 331 332 331 331 330 329 328 328 327 327 326 324 322 320 319 317 317 316 317 317
334 334 333 332 332 332 332 332 331 331 332 332 332 332 333 333 333 333 334 333 333 333 333 333 333 333 334 334 333 333 334 333 333 333 333 332 331 331 331 331 330 331 331 330 331 332 331 331 329 328 328 328 326 325 323 321 319 317 316 314 314 314 313
334 334 333 333 332 331 332 332 331 331 332 332 332 332 333 334 333 333 333 333 333 333 332 332 334 334 334 334 335 334 333 332 332 332 332 332 332 331 331 331 331 332 331 330 330 330 331 330 329 328 328 327 326 325 323 321 319 316 315 313 312 311 311
334 334 333 334 333 332 332 333 332 331 331 331 332 332 333 334 333 333 333 333 333 332 332 333 334 334 334 334 335 334 333 332 332 331 331 332 331 332 332 331 332 332 331 330 329 331 331 329 329 328 328 327 325 323 322 321 318 316 314 312 310 310 311
334 334 334 334 333 333 334 332 331 331 331 331 332 333 334 334 333 334 333 332 332 332 333 335 334 333 334 334 334 333 334 334 332 331 332 332 332 333 332 331 332 332 331 330 329 330 331 328 329 329 327 327 324 321 320 319 316 314 312 310 310 310 310
334 333 334 332 331 333 333 331 330 330 331 331 332 333 334 333 333 332 332 331 331 331 333 334 334 333 334 334 333 333 333 333 332 332 332 332 333 333 332 332 332 331 331 330 328 330 330 329 329 328 327 327 323 321 319 317 315 313 311 309 309 309 309
333 333 333 331 331 331 330 330 330 330 330 331 332 333 333 332 331 331 331 331 331 331 332 333 333 333 333 332 333 333 332 332 332 332 332 332 333 333 331 331 332 331 330 330 329 329 330 330 329 327 326 325 322 322 321 318 315 312 310 310 310 310 309
333 333 332 330 330 329 329 329 329 329 330 331 331 332 332 332 331 331 330 330 331 330 330 331 331 331 333 332 332 332 331 332 333 332 332 333 333 333 331 330 331 331 331 330 329 328 330 331 330 328 327 324 321 323 323 321 317 312 309 310 311 311 310
334 333 331 330 330 329 329 329 329 330 331 330 331 330 330 331 331 330 330 330 330 329 329 329 329 330 332 331 332 332 331 332 333 332 332 333 333 331 331 331 331 330 330 329 328 328 329 330 330 327 326 325 322 321 320 320 318 312 308 310 311 312 312
334 333 332 331 330 330 330 330 330 330 330 329 330 330 329 330 330 330 329 330 330 329 329 328 328 329 330 330 331 331 331 332 332 332 332 332 332 332 332 332 331 330 330 329 328 329 328 328 329 327 325 325 324 321 317 317 318 313 309 310 311 312 312
334 333 333 331 331 331 331 330 330 330 329 329 329 329 329 330 330 329 329 329 329 329 329 328 328 328 328 329 329 330 331 331 331 331 330 331 332 332 332 332 331 330 331 330 329 329 328 328 329 328 327 325 324 322 318 315 315 314 310 310 311 312 313
333 333 332 331 331 331 331 331 330 330 329 329 329 328 329 329 329 327 327 328 328 328 328 327 327 328 328 328 328 328 329 329 329 328 329 331 331 331 331 331 330 330 330 330 329 328 328 329 330 329 328 326 324 323 320 316 313 313 312 311 311 313 313
332 331 331 330 329 330 331 331 330 329 328 328 328 328 328 328 327 326 326 326 327 327 328 327 327 327 327 328 327 327 327 327 326 326 327 328 329 330 331 330 330 330 330 330 329 328 329 330 329 329 327 325 323 322 321 317 313 313 314 311 311 313 313
331 330 329 329 329 330 331 330 329 329 327 327 327 327 327 327 327 326 326 326 326 326 326 325 326 326 326 326 326 325 325 325 325 325 325 326 327 329 331 330 329 329 329 329 329 328 329 329 329 328 326 323 322 322 322 318 313 314 314 312 311 312 312
329 328 328 328 329 330 330 330 329 328 327 326 327 327 326 326 326 326 326 326 326 325 324 324 324 325 325 325 326 324 324 325 325 325 325 324 325 328 330 330 329 328 328 329 328 327 328 328 329 328 324 321 321 321 321 318 315 315 315 313 312 312 312
328 328 327 327 329 330 329 329 329 328 327 327 327 326 326 325 325 325 325 325 325 324 324 323 323 324 324 324 325 323 323 324 324 324 323 323 324 325 328 329 329 328 328 328 327 327 326 327 328 326 323 321 319 318 319 318 316 316 315 314 314 312 312
327 327 326 327 329 330 330 329 329 328 327 327 326 325 324 324 324 323 323 324 324 324 323 323 323 323 323 323 324 324 322 323 323 323 322 322 323 325 327 329 328 328 329 328 327 327 326 326 326 324 323 321 318 316 317 318 317 317 316 316 316 314 313
326 326 327 327 328 329 329 329 328 328 326 325 324 323 322 322 322 322 322 323 323 322 322 322 322 322 322 321 322 324 324 323 322 322 321 322 323 325 327 328 328 328 328 328 327 327 326 327 325 323 322 321 318 317 317 317 317 317 317 317 317 315 315
326 326 327 328 329 329 329 328 327 326 325 323 322 321 321 321 320 320 320 320 320 320 319 319 319 320 321 321 321 323 324 323 322 322 322 322 323 324 325 327 328 327 327 327 327 325 325 325 324 322 322 321 319 317 316 316 317 318 318 318 317 316 316
326 327 327 328 329 329 328 326 325 323 322 321 321 321 321 320 320 319 320 321 321 320 319 318 318 317 319 320 321 322 323 323 323 322 322 322 322 323 324 326 326 327 327 327 327 326 325 323 322 322 321 320 320 318 316 317 318 318 319 318 317 317 316
327 328 328 328 329 329 327 326 323 322 321 321 321 320 320 320 320 320 322 322 321 321 320 318 316 317 318 319 320 321 321 321 322 321 321 321 321 322 323 323 324 326 327 327 326 325 324 322 322 321 321 321 321 320 319 319 319 319 319 319 319 318 318
327 327 327 328 328 327 325 324 323 323 322 321 321 321 321 322 322 322 322 321 320 320 319 318 316 316 317 318 319 320 320 320 321 321 321 320 320 321 322 322 322 323 325 326 325 324 322 321 321 321 321 321 321 321 321 321 320 321 320 320 320 319 319
326 326 326 326 326 325 324 324 324 324 323 324 324 324 324 323 323 322 321 319 317 315 314 315 315 314 316 317 318 320 319 319 320 320 320 320 320 320 322 321 319 319 320 321 322 322 321 320 320 320 321 321 321 321 321 321 320 320 320 319 319 319 320
324 324 324 325 325 324 323 323 323 323 323 323 323 322 322 321 321 320 318 316 314 313 312 312 312 312 313 314 316 318 318 319 320 319 319 320 319 319 320 321 319 318 318 318 318 319 318 318 318 317 317 318 319 319 320 319 318 318 317 317 316 316 319
321 321 321 322 321 321 321 320 319 319 319 319 319 319 318 318 318 318 316 315 314 314 314 313 313 312 312 312 313 314 317 320 320 319 320 320 320 320 321 321 321 321 320 319 318 318 318 318 317 316 314 314 315 315 315 315 314 314 313 313 312 313 315
318 318 318 318 318 318 318 317 317 317 317 318 319 318 317 316 315 315 314 314 314 314 315 315 315 314 314 313 312 312 314 318 319 319 319 320 321 321 321 321 322 321 321 320 320 319 319 319 319 318 317 318 317 316 315 314 314 313 313 313 312 312 312
315 315 315 315 315 316 316 317 317 317 318 318 318 318 316 315 313 312 312 312 312 313 314 315 315 316 315 315 316 316 317 319 320 319 319 319 319 320 320 320 321 320 320 321 321 320 319 319 320 320 320 321 321 321 320 319 319 318 318 318 317 315 314
314 313 313 313 313 314 314 315 315 316 316 316 316 315 315 314 312 311 310 309 309 310 311 312 312 315 316 317 318 318 318 319 321 321 321 321 321 320 321 322 322 321 320 320 321 321 319 319 319 318 319 319 319 320 320 320 321 321 320 320 320 319 318
312 313 312 312 312 312 312 312 313 314 314 314 313 313 313 313 312 311 309 307 307 306 307 306 308 310 313 314 316 316 315 317 319 319 319 320 322 321 321 322 322 321 321 321 321 321 320 320 319 319 319 320 321 322 321 320 321 321 321 320 320 320 320
309 310 310 310 310 311 311 310 311 311 311 311 311 311 312 312 311 309 308 307 306 304 302 302 303 305 306 309 311 313 314 315 316 316 315 315 318 321 321 321 321 321 319 318 318 319 319 319 319 318 318 318 319 321 322 320 319 319 320 321 321 321 321
307 307 307 307 308 308 308 308 308 309 309 309 309 309 309 309 308 306 304 303 302 300 299 299 299 299 300 302 304 308 311 311 311 312 311 310 313 317 319 319 318 317 316 314 314 313 313 313 312 312 311 310 310 312 315 316 316 315 315 316 318 319 321
307 306 306 306 306 306 307 307 307 307 307 307 308 307 307 307 306 306 306 304 301 300 299 298 297 297 298 298 299 301 304 304 302 303 304 305 308 312 315 315 313 311 310 310 310 310 310 310 309 308 306 303 302 303 304 305 306 307 307 307 310 313 317
306 307 306 305 305 306 307 307 307 306 305 305 307 307 307 307 307 308 308 306 305 303 302 301 299 298 297 297 297 297 298 298 297 298 298 301 304 306 308 309 308 307 306 306 306 306 305 304 303 302 300 298 298 299 299 299 300 301 301 301 302 306 310
306 306 307 306 306 306 307 307 307 307 306 306 307 307 307 307 308 308 308 307 306 305 304 304 302 300 299 298 298 298 297 296 296 296 297 299 303 304 304 304 304 304 303 301 300 299 299 298 298 297 297 297 297 298 298 298 298 299 299 300 302 303 306
305 305 306 306 306 307 306 306 306 307 307 308 308 307 307 308 308 308 308 308 307 306 305 305 303 301 300 300 300 300 300 299 298 299 299 301 302 302 301 301 299 299 298 298 298 299 299 300 300 301 301 300 299 299 299 298 299 301 304 305 306 306 307
Wind_Speed
10 11 11 13 14 14 14 13 12 13 13 12 10 9 11 11 10 11 12 11 11 11 10 11 10 9 9 9 9 11 9 9 9 10 11 10 8 9 8 4 4 7 9 8 9 10 6 3 5 6 9 10 10 10 10 10 13 14 13 13 14 15 15
13 12 12 13 15 15 14 13 12 12 12 10 8 10 12 10 9 10 11 11 11 9 10 10 9 10 9 9 11 11 10 10 10 9 12 12 9 10 9 5 5 7 7 6 8 10 8 6 5 4 8 9 9 10 10 11 14 13 12 13 13 13 13
14 13 14 14 16 15 13 12 10 9 8 7 6 10 11 8 8 9 9 10 9 7 8 8 8 10 10 9 11 12 10 10 10 9 12 13 10 10 9 7 8 8 7 5 5 8 8 7 5 7 11 11 9 11 12 13 14 12 11 12 12 13 13
17 15 17 17 16 15 14 12 10 8 8 8 7 9 9 9 8 8 8 8 8 6 7 7 8 9 10 10 11 11 11 10 10 9 9 10 9 10 9 8 9 9 7 5 5 8 8 6 6 9 12 13 12 13 14 14 14 13 12 12 13 14 15
21 19 20 18 17 17 16 14 11 10 10 11 10 8 8 9 9 8 8 7 7 7 6 7 9 9 10 11 10 11 11 10 10 10 9 8 9 10 9 9 9 8 8 7 6 7 8 9 9 9 13 14 12 13 17 16 14 14 13 13 14 14 15
25 23 22 19 18 18 16 15 13 11 12 12 11 10 9 9 9 9 9 8 7 7 6 7 8 9 10 11 10 10 10 10 10 10 10 9 8 8 9 10 9 8 8 7 7 8 8 11 11 10 14 15 11 13 17 17 15 14 14 14 14 15 15
30 26 24 21 20 19 16 15 14 12 11 11 11 11 11 10 9 9 9 8 7 7 7 7 7 8 9 9 9 10 10 10 9 10 11 10 9 8 9 10 8 7 8 7 8 10 10 12 12 12 13 12 10 14 14 15 15 15 14 15 16 15 14
32 28 25 24 23 20 17 15 15 14 12 11 13 12 11 10 9 9 9 8 8 7 7 7 7 8 9 9 8 9 10 10 9 10 11 10 10 10 10 11 8 7 8 7 8 10 10 11 12 15 15 9 8 10 10 13 15 15 16 17 16 17 16
30 27 25 25 24 20 18 17 16 14 12 12 13 12 11 10 9 9 9 8 8 7 7 7 7 7 8 8 8 8 9 9 8 9 10 10 11 10 11 12 11 9 9 9 9 10 9 9 11 16 16 10 9 6 5 8 10 12 17 18 17 18 17
27 26 25 25 23 20 20 18 15 13 12 12 12 12 11 10 9 9 9 9 9 8 7 6 6 6 7 8 8 7 8 8 7 9 10 10 11 12 11 11 12 11 11 11 11 11 11 10 12 16 16 12 13 8 3 4 6 10 16 17 18 18 16
24 24 24 24 23 21 19 17 14 13 14 14 13 12 11 10 10 9 9 10 9 7 7 6 6 6 6 7 8 7 8 8 7 8 10 9 9 11 10 10 11 11 10 11 11 11 13 12 12 16 16 11 12 11 8 5 4 11 17 17 19 19 18
23 23 24 23 22 20 17 16 16 15 15 14 13 12 11 10 10 9 10 9 8 7 6 5 5 5 6 6 6 6 7 8 8 8 9 8 8 10 10 9 10 10 9 11 12 11 13 14 13 15 16 12 9 10 14 12 5 10 18 18 19 21 20
23 24 25 24 22 17 16 17 17 16 15 14 13 12 11 11 11 11 11 9 8 8 6 5 5 5 6 6 6 5 5 7 7 7 8 8 8 9 10 10 11 11 10 10 12 12 12 14 14 13 14 13 10 8 14 17 11 9 16 19 20 21 20
25 26 26 26 21 16 16 18 17 16 15 14 13 12 11 11 11 11 11 10 10 9 6 5 5 5 6 6 6 6 5 5 7 7 7 7 7 8 9 10 11 11 11 10 11 13 12 13 15 13 13 13 11 9 11 16 17 12 13 19 21 21 20
28 27 27 26 21 17 16 17 17 15 15 14 14 12 11 11 11 10 10 9 10 9 7 6 5 6 7 6 5 5 5 6 8 8 7 6 6 7 8 10 11 11 11 10 11 13 11 11 13 14 16 13 10 11 12 14 20 15 13 19 22 21 21
29 28 27 26 23 18 16 17 17 15 15 15 13 12 11 11 10 9 9 8 8 8 7 7 5 4 6 6 5 5 4 6 6 7 6 6 7 6 6 8 10 11 11 10 12 13 11 11 11 13 15 14 13 14 12 14 22 18 14 18 20 21 22
28 27 27 26 23 19 17 18 17 15 15 14 12 11 11 10 10 9 9 8 8 8 7 8 5 4 5 5 5 5 4 3 5 5 5 5 7 8 6 7 9 10 11 12 12 13 14 14 13 15 16 15 14 14 13 18 24 21 18 17 18 21 22
27 26 27 25 22 22 20 18 17 16 15 13 11 11 11 10 9 9 8 8 9 8 8 8 5 4 6 4 2 4 5 4 5 5 2 1 4 7 6 6 9 10 11 12 11 11 13 15 15 17 19 16 11 9 11 20 25 23 21 20 18 19 21
24 25 27 25 24 25 23 18 17 16 15 13 11 10 10 9 9 9 8 8 9 7 6 7 5 4 5 3 1 1 4 6 5 3 2 2 2 5 5 6 8 9 9 11 12 11 13 15 16 17 18 15 11 10 8 14 21 22 21 21 19 18 21
23 24 25 25 26 25 21 18 16 14 13 13 11 10 10 9 9 9 8 8 8 6 6 7 6 4 4 3 3 1 1 4 4 3 3 3 4 5 5 6 8 9 8 10 13 14 15 17 17 16 16 12 11 14 10 8 14 21 21 20 19 17 18
22 22 22 25 26 22 19 17 15 13 13 13 11 10 10 9 9 9 9 9 8 7 7 6 6 5 3 3 4 3 2 2 2 2 2 4 6 4 4 5 6 7 7 8 10 12 15 18 16 15 14 9 9 17 15 7 8 14 16 17 19 18 15
21 21 22 24 23 20 20 17 14 14 14 12 11 11 11 9 9 9 10 10 9 8 7 6 6 5 3 6 6 2 2 4 3 3 3 2 4 3 3 3 4 5 7 7 7 8 13 15 12 12 11 7 6 14 14 9 6 6 6 9 13 15 14
22 21 21 23 22 20 20 19 16 15 14 12 12 12 11 9 9 10 10 10 9 7 6 5 6 4 3 5 4 3 2 3 4 3 4 4 3 4 4 4 4 5 7 8 6 7 11 11 7 8 10 6 4 7 8 8 8 8 7 7 8 10 12
23 19 18 21 22 20 19 18 18 17 16 15 13 12 12 12 11 12 11 9 7 5 4 4 4 4 3 3 2 3 4 1 2 2 3 4 4 6 6 5 5 6 6 7 7 7 9 9 6 7 7 6 6 6 5 6 8 9 9 9 10 11 13
20 16 15 19 20 20 19 20 20 20 19 17 14 13 14 13 12 12 10 8 6 4 4 4 3 4 4 2 1 2 4 5 3 1 3 3 2 5 6 6 6 6 5 5 7 8 8 8 8 7 6 6 8 9 8 8 8 7 7 7 8 10 12
20 18 18 21 22 22 23 22 21 20 19 17 14 13 13 11 10 10 9 8 7 6 5 4 3 3 4 3 3 1 3 6 5 1 3 2 2 3 7 8 7 7 6 4 4 6 6 7 8 8 7 7 8 10 10 11 10 10 9 9 9 10 9
23 22 23 25 25 25 24 22 21 19 18 15 13 11 9 7 7 8 7 6 6 6 6 4 3 2 2 3 4 3 1 6 7 5 4 3 3 4 5 6 6 7 8 7 5 5 5 6 7 8 8 8 9 10 12 13 14 14 15 14 14 15 13
23 23 24 24 24 24 23 22 19 17 16 14 12 9 7 6 6 7 7 6 6 7 7 6 4 2 2 2 3 3 1 4 6 6 6 5 4 5 6 5 4 5 5 5 6 6 5 4 5 5 5 6 7 8 10 12 13 14 15 16 17 18 18
22 21 22 23 22 20 19 19 17 15 15 15 14 13 11 9 9 9 8 7 8 8 8 7 5 4 4 4 3 2 1 3 4 3 3 3 4 4 3 3 4 3 1 2 4 6 6 5 5 4 4 5 6 7 9 11 12 13 14 15 17 18 19
23 22 22 22 21 19 18 17 15 14 16 16 16 16 15 13 12 11 9 8 8 8 8 7 6 5 5 5 4 5 6 4 3 4 4 3 3 4 3 3 4 3 1 0 1 4 7 8 8 7 6 7 7 9 10 10 10 12 14 16 18 19 19
23 24 23 21 20 20 19 17 14 14 16 17 16 15 14 14 13 11 9 9 8 8 8 7 6 5 4 4 2 5 9 10 8 8 8 6 3 3 2 1 1 2 2 3 3 3 4 5 6 6 6 7 8 9 9 8 8 9 11 14 17 19 21
22 23 23 20 19 20 19 16 15 14 15 15 14 12 11 10 10 9 9 8 7 7 8 7 7 6 4 3 3 4 6 8 9 8 8 9 6 2 1 0 1 2 3 3 4 5 5 5 5 6 7 8 9 9 10 11 12 12 11 12 14 16 20
21 21 20 19 19 18 16 15 15 15 15 14 13 12 9 8 8 8 7 6 6 8 9 9 9 8 7 5 4 3 4 5 6 5 6 9 9 4 1 1 2 0 2 4 5 6 7 7 8 9 10 11 11 12 14 16 17 19 19 18 17 18 20
20 20 18 18 18 17 15 13 13 13 12 13 12 11 9 8 9 8 7 6 8 10 12 12 12 11 10 8 6 4 5 6 7 6 5 5 8 9 5 2 4 6 7 7 8 9 11 12 13 14 15 15 15 17 19 20 21 21 22 22 21 20 21
19 18 17 17 17 16 14 12 11 11 11 12 12 10 8 8 9 8 6 5 8 11 12 14 15 15 13 12 10 7 6 7 7 7 6 4 7 9 7 4 7 11 13 13 14 15 16 17 18 19 19 19 18 18 19 19 20 21 22 22 21 20 20
18 18 17 16 15 13 12 11 10 8 8 10 10 9 8 7 8 9 8 6 6 9 11 13 16 16 15 15 14 12 11 10 8 7 7 7 7 7 7 8 11 14 16 17 18 17 17 17 17 17 17 17 17 17 18 18 18 19 19 19 19 19 19
18 17 16 15 14 12 11 10 9 7 6 6 8 8 7 6 7 9 10 10 8 8 9 12 15 16 17 17 17 17 16 14 12 10 8 7 7 8 9 11 12 13 14 15 14 14 13 13 13 13 13 14 14 14 15 16 16 14 14 14 15 16 17
Wind_Direction
201 189 188 188 188 191 194 194 200 202 203 202 204 226 228 204 192 199 199 201 203 201 200 192 190 194 187 186 182 174 169 158 152 157 162 160 155 164 170 162 136 135 149 152 140 139 134 134 148 144 149 155 153 148 146 147 145 140 137 134 129 128 129
198 185 184 187 188 190 192 196 201 205 205 196 196 228 231 204 188 200 201 200 202 200 200 198 197 192 183 182 178 169 165 161 155 155 163 170 168 160 160 148 132 139 145 140 133 133 130 140 156 152 151 157 164 162 155 144 138 139 143 141 141 141 136
190 185 187 185 188 190 190 196 199 202 199 181 192 226 222 198 192 200 196 197 200 197 197 199 192 185 180 177 173 164 159 162 164 160 162 173 176 161 157 149 140 147 143 130 139 137 132 140 148 152 159 164 168 161 152 145 143 147 152 150 145 141 136
191 186 184 182 187 188 186 195 196 184 174 172 195 219 207 188 187 185 182 189 192 187 189 190 179 176 180 176 174 169 164 168 175 175 168 168 164 158 165 158 150 160 150 139 169 157 140 146 145 148 160 159 151 149 150 153 155 155 157 154 146 139 139
192 187 180 178 182 184 184 188 182 172 172 169 177 198 198 184 178 174 175 178 181 181 182 183 174 172 175 169 166 169 171 173 176 178 180 175 162 159 166 158 153 162 148 141 169 161 150 159 152 144 154 157 154 155 160 162 162 161 158 152 147 145 147
189 187 182 175 175 181 184 182 174 173 173 161 165 191 194 178 172 170 169 171 178 179 175 180 176 170 169 165 165 168 170 174 171 171 179 181 171 167 169 164 163 165 153 149 163 160 154 159 155 145 154 166 159 147 159 166 164 163 161 156 154 151 154
183 184 183 179 179 182 184 181 174 174 170 160 172 192 185 170 170 166 161 165 170 172 177 180 172 167 166 165 168 168 166 171 173 172 176 173 167 165 162 161 170 176 169 163 161 160 158 161 164 154 155 164 143 133 155 171 167 164 162 159 157 152 155
178 180 183 186 185 183 183 181 177 176 173 172 179 181 173 168 166 160 158 159 162 171 180 170 161 170 173 167 170 175 175 176 174 174 177 175 172 168 162 162 169 176 174 173 169 164 161 168 171 162 160 159 134 140 166 172 168 165 159 156 154 153 156
173 175 180 185 184 181 182 180 175 171 169 172 172 168 167 166 159 155 156 157 160 166 168 158 159 173 173 167 173 178 179 181 177 175 180 182 178 174 171 168 165 170 178 181 175 166 166 176 173 172 179 172 148 157 174 166 167 160 154 150 144 148 158
170 172 177 179 177 176 176 172 166 162 163 166 163 161 163 161 156 156 156 157 159 159 161 158 163 174 170 169 179 177 172 178 181 178 184 188 183 180 181 175 169 178 186 182 180 175 174 180 178 184 196 182 159 163 158 157 161 149 154 152 140 143 158
167 171 173 170 167 166 167 168 162 158 161 162 158 158 160 156 157 158 154 155 156 157 163 162 164 174 172 172 184 186 176 176 181 183 186 189 187 184 185 179 174 186 195 184 183 184 181 186 187 189 199 197 181 177 158 144 148 149 155 155 148 152 161
164 168 167 162 159 161 166 166 158 154 156 158 157 156 158 157 156 157 154 151 151 157 161 162 164 166 167 169 180 187 180 176 183 191 189 186 188 185 182 179 173 181 197 188 180 182 183 186 189 190 195 206 217 194 161 145 134 154 162 157 154 160 167
162 162 161 156 154 159 163 156 151 153 154 156 156 157 159 157 154 157 156 151 155 159 156 161 163 156 162 169 172 181 183 178 185 190 186 186 192 189 186 187 180 178 190 187 178 184 185 182 187 192 193 204 228 213 164 147 136 157 171 164 157 163 172
163 160 158 154 151 153 153 149 151 153 152 154 158 162 163 158 157 159 158 160 162 157 155 159 154 153 162 165 172 179 175 179 184 176 173 184 191 193 192 189 183 182 188 186 178 185 185 177 183 190 194 207 222 214 181 151 141 153 167 161 160 165 171
161 158 157 151 144 146 150 151 153 151 152 157 160 166 166 159 161 158 154 160 157 153 159 156 154 167 164 157 172 175 173 197 194 168 162 184 188 189 188 181 175 174 183 188 181 187 188 172 181 191 194 204 205 198 196 160 147 154 156 155 162 166 168
157 156 155 146 140 151 159 154 153 153 153 156 161 166 163 157 160 156 153 158 153 157 161 148 154 169 147 149 172 172 185 203 182 152 163 193 189 180 180 177 172 168 178 186 182 187 186 171 185 194 189 200 203 196 198 168 155 159 156 157 166 166 168
159 158 153 144 145 161 165 154 153 154 152 155 159 158 153 156 160 156 157 156 152 166 161 140 151 161 143 169 184 168 179 168 144 156 187 198 180 171 175 174 165 166 177 184 187 193 187 181 194 193 188 205 209 194 187 174 165 165 164 167 174 171 173
163 158 150 149 156 161 159 155 156 155 152 152 150 145 147 154 156 153 158 156 155 174 164 140 154 162 153 179 186 166 179 163 159 179 175 110 143 154 169 172 156 158 170 176 186 199 193 190 194 193 198 212 207 184 176 170 168 170 170 176 184 181 179
161 157 152 156 161 157 153 155 155 154 151 145 141 145 150 152 152 153 158 153 153 168 156 140 158 161 145 165 191 185 178 164 163 166 121 82 112 132 153 170 161 161 170 170 174 189 198 194 191 196 211 216 192 180 180 168 170 174 173 178 190 188 178
160 162 159 158 155 151 150 152 150 146 141 137 139 146 146 143 146 145 138 134 135 141 136 133 143 136 115 151 187 221 161 148 149 147 131 107 100 114 145 170 169 172 182 172 170 186 196 189 190 206 222 222 188 181 189 180 176 177 175 179 193 195 181
154 158 155 148 144 144 148 149 145 138 136 139 143 143 138 135 136 132 122 119 117 119 119 115 128 135 92 96 151 186 194 173 156 153 143 85 86 116 176 189 176 172 176 170 173 192 192 184 193 211 222 230 197 180 183 192 188 183 179 180 189 197 194
144 143 142 143 142 141 142 141 138 135 137 142 143 138 135 132 129 122 115 113 111 107 104 99 116 137 94 85 100 109 177 200 216 180 177 126 93 120 171 173 160 160 167 170 174 186 184 185 199 204 204 217 184 169 177 194 217 226 212 189 186 194 202
144 141 141 145 145 140 138 141 141 138 134 133 131 128 126 120 117 118 114 113 114 109 106 104 108 113 95 94 89 48 88 192 230 207 197 205 154 131 131 124 126 145 165 173 171 170 177 187 193 177 184 199 167 160 178 196 218 244 247 232 215 206 211
144 146 147 145 143 140 137 135 134 130 125 121 116 111 111 107 108 117 121 122 121 116 122 134 132 134 132 115 92 57 61 59 262 225 217 229 180 141 132 124 130 146 166 184 188 179 176 187 186 165 176 195 195 201 213 215 227 242 245 245 242 234 229
139 144 144 136 135 135 128 122 122 120 117 114 109 102 103 105 109 113 116 119 119 113 126 146 166 176 181 185 152 77 49 22 352 236 222 244 205 155 150 141 132 137 149 175 192 191 184 190 196 191 190 195 200 211 222 230 241 249 254 263 264 258 248
126 126 123 122 127 127 122 118 117 115 112 110 105 100 98 101 104 104 105 107 109 109 116 131 152 171 186 203 214 210 21 14 9 329 215 221 232 184 165 153 139 142 150 148 163 186 193 197 202 209 220 220 214 220 229 240 251 258 265 277 284 282 274
113 115 117 120 122 122 120 116 114 115 113 106 99 92 88 91 95 97 99 102 104 109 109 111 141 176 191 204 213 219 327 9 15 18 34 67 68 64 96 120 130 145 158 159 165 190 204 209 210 216 229 236 235 238 243 249 256 262 269 275 282 285 283
106 112 117 116 113 113 114 113 112 114 113 107 99 87 79 92 110 112 115 117 113 106 101 101 114 143 177 201 216 218 292 6 17 17 16 31 42 35 39 47 67 103 134 157 179 200 208 201 201 207 223 239 247 253 254 255 258 260 266 272 276 280 279
102 108 110 109 106 104 104 107 109 111 114 114 110 100 90 91 101 105 110 116 113 104 98 98 98 103 125 140 138 121 65 349 351 1 11 35 37 27 34 45 56 79 117 165 177 203 221 225 227 238 253 257 261 266 265 269 271 266 266 270 271 272 272
99 103 105 106 106 102 99 104 111 119 123 121 116 112 109 106 104 103 102 101 100 98 92 85 80 86 109 120 110 79 60 38 19 26 36 47 30 21 61 90 85 86 85 242 173 207 224 235 246 258 272 276 277 278 275 278 283 275 268 266 261 258 261
102 108 109 107 107 107 104 103 109 123 128 124 121 121 121 119 114 108 101 96 92 87 79 69 62 62 79 96 92 61 56 60 71 66 49 37 2 321 343 45 30 356 335 312 296 271 245 245 255 263 273 281 290 296 292 290 297 290 270 261 256 252 252
96 105 110 107 106 108 105 101 105 114 118 116 113 113 118 122 117 106 96 90 80 69 60 51 43 37 37 47 57 53 50 56 68 68 51 41 32 323 255 111 254 280 310 316 308 303 296 290 294 297 299 301 304 304 298 295 303 306 294 277 270 267 265
83 89 96 98 99 100 98 100 107 111 112 112 109 106 110 110 99 90 81 70 60 54 46 39 36 29 19 18 24 13 4 20 32 31 26 32 35 33 62 83 74 350 329 338 332 328 325 322 320 320 319 321 317 305 297 296 300 304 304 300 295 291 288
78 82 85 87 90 92 90 92 99 102 107 113 111 106 106 102 92 87 77 62 56 52 44 38 36 33 26 26 29 11 350 360 6 2 4 24 34 39 44 24 2 358 351 343 335 330 327 323 320 319 317 316 312 304 300 299 299 299 302 304 303 300 296
71 78 80 78 79 83 83 84 89 91 95 100 101 100 103 106 106 106 103 85 63 56 48 39 35 34 33 34 39 38 20 12 7 1 5 19 31 36 35 347 326 335 337 332 326 321 318 316 313 313 312 311 308 306 304 303 301 300 300 301 301 298 294
66 71 77 78 79 82 85 87 89 92 96 103 110 118 124 130 132 131 135 131 86 61 54 43 37 39 40 39 41 42 37 32 24 16 27 34 23 9 355 330 319 318 319 321 323 323 322 320 319 318 318 317 315 313 311 309 309 309 306 304 301 297 292
63 66 69 74 76 74 78 84 83 82 92 108 121 128 134 146 148 142 142 140 121 91 70 53 43 42 42 41 41 39 38 40 42 43 48 38 9 343 334 335 332 324 320 324 331 338 342 345 346 345 340 332 325 321 319 317 316 313 306 300 298 296 297